Location: Newark
(52.3500°N, 175.9667°E)
Time: 08:39:43
(UTC+00:00)

Tiros 1 - All Passes

Search period start: 20 April 2021 00:00
Search period end: 30 April 2021 00:00
Orbit: 630 x 663 km, 48.4° (Epoch: 19 April)

Date Brightness Start Highest point End Pass type
(mag) Time Alt. Az. Time Alt. Az. Time Alt. Az.
20 Apr - 00:06:07 10° WSW 00:10:37 52° S 00:15:07 10° E daylight
20 Apr - 01:48:04 10° W 01:52:25 42° SSW 01:56:46 10° SE daylight
20 Apr - 03:30:43 10° WSW 03:33:50 18° SW 03:36:56 10° S daylight
20 Apr - 21:09:46 10° SSW 21:13:09 20° SSE 21:16:31 10° E daylight
20 Apr - 22:50:13 10° WSW 22:54:37 44° SSE 22:59:01 10° E daylight
21 Apr - 00:31:56 10° W 00:36:26 51° S 00:40:55 10° ESE daylight
21 Apr - 02:14:06 10° W 02:18:07 30° SSW 02:22:07 10° SE daylight
21 Apr - 19:56:48 10° SSE 19:57:35 10° SE 19:58:22 10° SE daylight
21 Apr - 21:34:38 10° SW 21:38:44 31° SSE 21:42:49 10° E daylight
21 Apr - 23:15:55 10° WSW 23:20:25 52° S 23:24:55 10° E daylight
22 Apr - 00:57:51 10° W 01:02:14 43° SSW 01:06:36 10° SE daylight
22 Apr - 02:40:26 10° W 02:43:41 19° SW 02:46:55 10° S daylight
22 Apr - 20:19:43 10° S 20:22:59 19° SE 20:26:15 10° E daylight
22 Apr - 22:00:02 10° SW 22:04:26 43° SSE 22:08:49 10° E daylight
22 Apr - 23:41:45 10° W 23:46:15 52° S 23:50:45 10° ESE daylight
23 Apr - 01:23:52 10° W 01:27:57 31° SSW 01:32:00 10° SE daylight
23 Apr - 03:08:21 10° SW 03:09:04 10° SW 03:09:48 10° SW daylight
23 Apr - 20:44:29 10° SW 20:48:33 30° SSE 20:52:35 10° E daylight
23 Apr - 22:25:43 10° WSW 22:30:14 51° S 22:34:43 10° E daylight
24 Apr - 00:07:38 10° W 00:12:03 44° SSW 00:16:26 10° ESE daylight
24 Apr - 01:50:09 10° W 01:53:31 20° SSW 01:56:52 10° SSE daylight
24 Apr - 19:29:40 10° S 19:32:49 18° SE 19:35:58 10° ESE daylight
24 Apr - 21:09:51 10° SW 21:14:14 42° SSE 21:18:37 10° E daylight
24 Apr - 22:51:32 10° W 22:56:04 52° S 23:00:34 10° ESE daylight
25 Apr - 00:33:38 10° W 00:37:46 32° SSW 00:41:52 10° SE daylight
25 Apr - 02:17:34 10° WSW 02:18:56 11° SW 02:20:18 10° SSW daylight
25 Apr - 19:54:21 10° SSW 19:58:22 29° SSE 20:02:22 10° E daylight
25 Apr - 21:35:30 10° WSW 21:40:02 51° S 21:44:31 10° E daylight
25 Apr - 23:17:25 10° W 23:21:51 45° SSW 23:26:16 10° ESE daylight
26 Apr - 00:59:53 10° W 01:03:21 21° SSW 01:06:49 10° SSE daylight
26 Apr - 18:39:38 10° S 18:42:40 17° SE 18:45:40 10° ESE daylight
26 Apr - 20:19:40 10° SW 20:24:03 40° SSE 20:28:24 10° E daylight
26 Apr - 22:01:19 10° WSW 22:05:51 53° S 22:10:22 10° ESE daylight
26 Apr - 23:43:24 10° W 23:47:34 34° SSW 23:51:44 10° SE daylight
27 Apr - 01:27:01 10° WSW 01:28:47 12° SW 01:30:34 10° SSW daylight
27 Apr - 19:04:13 10° SSW 19:08:11 27° SSE 19:12:08 10° E daylight
27 Apr - 20:45:18 10° WSW 20:49:50 50° S 20:54:20 10° E daylight
27 Apr - 22:27:12 10° W 22:31:40 46° SSW 22:36:05 10° ESE daylight
28 Apr - 00:09:36 10° W 00:13:11 22° SSW 00:16:45 10° SSE daylight
28 Apr - 17:49:37 10° S 17:52:30 16° SE 17:55:22 10° ESE daylight
28 Apr - 19:29:29 10° SW 19:33:51 39° SSE 19:38:12 10° E daylight
28 Apr - 21:11:06 10° WSW 21:15:39 53° S 21:20:11 10° ESE daylight
28 Apr - 22:53:10 10° W 22:57:24 35° SSW 23:01:35 10° SE daylight
29 Apr - 00:36:32 10° WSW 00:38:38 13° SW 00:40:44 10° SSW daylight
29 Apr - 18:14:05 10° SSW 18:18:00 26° SSE 18:21:54 10° E daylight
29 Apr - 19:55:05 10° WSW 19:59:38 50° S 20:04:08 10° E daylight
29 Apr - 21:36:58 10° W 21:41:28 47° SSW 21:45:55 10° ESE daylight
29 Apr - 23:19:19 10° W 23:23:01 23° SSW 23:26:41 10° SSE daylight
